NWS Melbourne » East Central Florida Hourly Weather Roundup

MIARWRMLB 000
TTAA00 KMLB 241711
HOURLY WEATHER ROUNDUP AROUND FLORIDA
NATIONAL WEATHER SERVICE OFFICE MELBOURNE FL
100 PM EDT THU JUL 24 2014
  
CITY           SKY/WX    TMP DP  RH WIND       PRES   REMARKS
MELBOURNE      MOSUNNY   91  74  57 VRB3      30.05F HX 100           
FORT PIERCE    MOSUNNY   90  73  57 SW7       30.06F HX  98           
ORLANDO INTL   MOSUNNY   88  73  61 CALM      30.06S                  
DAYTONA BEACH  MOSUNNY   88  72  58 CALM      30.05F THUNDER          
VERO BEACH     PTSUNNY   87  75  67 CALM      30.06F                  
$$
...ELSEWHERE ACROSS CENTRAL FLORIDA...
  
CITY           SKY/WX    TMP DP  RH WIND       PRES   REMARKS
PATRICK AFB    SUNNY     90  75  62 S3        30.05F HX 101           
JFK SPACE CTR  CLOUDY    87  78  75 VRB1      30.05F HX 100           
CAPE CANAVERAL MOSUNNY   87  77  72 VRB3      30.05F HX  99           
TITUSVILLE     PTSUNNY   90  75  62 E8        30.05F HX 100           
ORLANDO EXEC   MOSUNNY   91  75  59 VRB7      30.05F HX 101           
LEESBURG       PTSUNNY   89  75  63 SE6       30.06F HX  99           
SANFORD        MOSUNNY   89  75  63 CALM      30.05F HX  99           
WINTER HAVEN   MOSUNNY   89  74  60 CALM      30.07F HX  98           
KISSIMMEE      MOSUNNY   90  77  66 SE5       30.07S HX 102           
OKEECHOBEE     MOSUNNY   88  75  66 MISG      30.07S                  
TAMPA          CLOUDY    81  74  79 N5        30.08R                  
$$
...NORTHERN FLORIDA...
  
CITY           SKY/WX    TMP DP  RH WIND       PRES   REMARKS
DELAND         MOSUNNY   88  73  62 CALM      30.06F                  
NEW SMYRNA BCH RAIN      75  72  88 S8        30.07                   
ORMOND BEACH   MOSUNNY   90  73  58 W6        30.05F HX  98           
PALM COAST     MOSUNNY   90  73  58 SW6       30.04F HX  98           
ST AUGUSTINE   MOSUNNY   94  71  47 SW7       30.04F HX 101           
OCALA          MOSUNNY   90  70  51 W5        30.06S                  
GAINESVILLE    MOSUNNY   89  72  56 W12G17    30.05S                  
JACKSONVILLE   MOSUNNY   90  70  51 W10       30.01F                  
TALLAHASSEE    PTSUNNY   91  71  51 VRB6      30.02F                  
$$
...ALONG THE SOUTHEAST COAST TO THE KEYS...
  
CITY           SKY/WX    TMP DP  RH WIND       PRES   REMARKS
STUART         PTSUNNY   90  73  58 E14       30.06F HX  98           
WEST PALM BCH  PTSUNNY   83  73  72 SW13      30.06F                  
MIAMI          PTSUNNY   89  75  63 SE12G21   30.06F HX  99           
KEY WEST       SUNNY     89  77  67 S7        30.06F HX 101           
$$
...MARINE REPORTS...
  
STATION/POSITION TIME  TEMP    WIND        PRES    WAVE   SWELL
                       AIR SEA DIR/SP/G            HT/PER HT/PER/DIR
                 (UTC) (F)     (DEG/KT/KT) (MB)    (FT/S) (FT/S/D)
ST AUGUSTINE FP  1700   88     280/  4/  9 1017.8F
20NM E CAPE CANA 1700   82 83  210/  6/  8 1018.4F   2/ 8   2/100/ 8
120 E NEW SMYRNA 1700   82 84  250/  6/  8 1018.9F   3/ 7   3/130/ 7
TRIDENT PIER     1700   86     140/  5/  8 1017.3F
SEBASTIAN INLET  1700   83     140/ 11     1018.0S
4NM E PORT CANAV 1700      86                N/A     2/ 7
6NM NE FPR INLET 1700      85                N/A     1/ 8
SETTLEMENT PT GB 1700   85     190/  8/ 10 1019.1F
$$
  
 


USA.gov is the U.S. government's official web portal to all federal, state and local government web resources and services.